シュワルツ彗星

C/2014 B1 ( Schwartz )

English version
Home page
Updated on May 23, 2019

---------------------------------------------------------------------

・ プロフィール

発見日 2014年1月28日
発見光度 19.9等
発見者 Michael Schwartz (Tenagra Observatory near Nogales, AZ, U.S.A.)

・ 写真集

・ 軌道要素

Epoch 2017 Sept. 4.0 TT = JDT 2458000.5
T 2017 Sept. 10.53331 TT                                MPCW
q   9.5565935            (2000.0)            P               Q
z  -0.0003923      Peri.  345.84158     -0.85029237     -0.50400341
 +/-0.0000005      Node   161.39567     +0.51719299     -0.85353164
e   1.0037492      Incl.   28.37225     +0.09754121     +0.13215257
From 963 observations 2014 Jan. 28-2019 May 10, mean residual 0".4.

・ 光度変化

        m1 = -13.0 + 5 logΔ + 25 log r(t + 200)

---------------------------------------------------------------------

軌道要素はM.P.E.C. 2019-J142に掲載されたものです。
光度グラフはComet for Windowsで作成したものです。

---------------------------------------------------------------------

Copyright(C) Seiichi Yoshida (comet@aerith.net). All rights reserved.